Погода Котельниково

Погода Котельниково : погода сейчас, прогноз погоды и архив. Всё, что Вы хотите узнать о погоде Котельниково!

Поиск расширенной информации на нашем сайте:

Другие новости

Новости СМИ2

Главная страница сайта

Новости сайта

03.07.2017

Напоминаем, что на нашем специализированном сайте Метеоцентр.Азия вы можете получить высокодетализированные автоматические прогнозы погоды по пунктам России, СНГ и мира в авиационном формате (включающие направление и скорость ветра, видимость, явления погоды, количество и форму облачности, нижнюю и верхнюю границу облачности).


Погода Котельниково - сегодня

Время (UTC), дата Ветер
(°,м/с) 
Видим.   Явления Облачность Т
(°С)
Тd
(°С)
f(%) Тe
(°С)
Pmin
(гПа)
dP
(гПа)
Po
(мм)
O2
(г/м3)
Тmin Tmax R s Состояние
почвы
21 18.05.18 290 (З) 6{10}  10 км    ясно 
+21.6 +9.3 45 +22  1014.2  0.5  756  281           
00 19.05.18 210 (ЮЗ) 10 км  слаб. ливневой дождь  10/10 600 м кучево-дожд. 
[Cb calv]
+17.8 +14.7 82 +27  1015.3  1.1  757  283           
03 19.05.18 190 (Ю) 10 км  {ливн. осадки}  3/3 600 м кучево-дожд. 
[Cb calv]
+18 +14.1 78 +26  1014.6  -0.7  757  283  +17.1    0.3     
06 19.05.18 270 (З) 10 км    4/0 средняя 
[Ac trans]
+23.4 +11.8 48 +27  1014.8  0.3  757  279           
09 19.05.18 230 (ЮЗ) 10 км    1/1 600 м 
[Cu hum]
+27.1 +9 32 +27  1014.6  -0.2  757  276           
12 19.05.18 270 (З) 10 км    9/6 600 м средняя 
[Cu med, cong|Ac trans]
+27.2 +9 32 +27  1013.8  -0.8  756  276           
15 19.05.18 250 (З) 10 км    9/9 600 м кучево-дожд. 
[Cb calv]
+26.2 +8.7 33 +26  1013.5  -0.3  756  276    +28       
18 19.05.18 тихо ()   10 км    8/8 600 м 
[Sc diur, vesp]
+22 +13.5 59 +28  1014.4  0.9  757  279           
21 19.05.18 170 (Ю) 10 км    ясно 
+15.5 +12.3 81 +21  1014.9  0.3  757  286           
00 20.05.18 160 (Ю) 10 км    3/0 средняя 
[Ac trans]
+13.5 +9.5 77 +15  1014.8  0.1  757  289           
03 20.05.18 170 (Ю) 10 км    8/4 600 м средняя 
[Sc diur, vesp|Ac trans]
+15.1 +10.6 74 +18  1015.4  0.6  757  287  +13.1        сухая 
06 20.05.18 120 (ЮВ) 10 км    8/8 600 м 
[Cu med, cong]
+25.2 +10.3 39 +27  1015.7  0.5  758  278           
09 20.05.18 200 (Ю) 10 км    6/6 600 м 
[Cu med, cong]
+27.8 +10.3 34 +29  1014.6  -1  757  275           
12 20.05.18 260 (З) 10 км    4/0 средняя 
[Ac trans]
+29.5 +7.4 25 +30  1013.7  -0.9  756  274           
15 20.05.18 310 (СЗ) 10 км    4/4 600 м 
[Cu hum]
+27.9 +8.6 30 +28  1013.1  -0.5  756  275    +30.2       
18 20.05.18 070 (В) 10 км    8/8 600 м 
[Sc diur, vesp]
+22.7 +10.4 46 +24  1013.9  0.7  756  279           
21 20.05.18 210 (ЮЗ) 10 км    9/9 600 м 
[Sc diur, vesp]
+20.6 +11.6 56 +24  1014.1  -0.1  756  281           
00 21.05.18 360 (С) 10 км    10/10 600 м 
[Sc diur, vesp]
+20.6 +11.6 56 +24  1014.1  -0.2  756  281           
03 21.05.18 050 (СВ) 4000 м  слаб. ливневой дождь, в посл. час гроза  10/10 300 м кучево-дожд. 
[Cb cap]
+18.4 +14.1 76 +26  1014.4  0.5  757  283  +17.6       
06 21.05.18 040 (СВ) 10 км    10/10 600 м 
[Sc diur, vesp]
+23.5 +14.9 59 +32  1014.7  0.4  757  278           
09 21.05.18 280 (З) 7-10{11}  10 км    8/8 600 м кучево-дожд. 
[Cb calv]
+24.8 +16.1 58 +35  1016.1  1.3  758  277           
12 21.05.18 310 (СЗ) 5{12}  10 км    10/10 600 м кучево-дожд. 
[Cb calv]
+22.1 +12.9 56 +27  1016.7  0.5  758  280           
15 21.05.18 340 (С) 10 км    10/10 600 м кучево-дожд. 
[Cb calv]
+19.8 +15.1 74 +30  1016.6  0.1  758  282    +26.6       
18 21.05.18 290 (З) 10 км    10/10 600 м 
[Sc diur, vesp]
+18.8 +14.5 76 +28  1017.6  759  283           
21 21.05.18 270 (З) 10 км    10/10 600 м 
[Sc]
+18 +14.9 82 +27  1017.7  -0.1  759  284           
Время (UTC), дата Ветер
(°,м/с) 
Видим.   Явления Облачность Т
(°С)
Тd
(°С)
f(%) Тe
(°С)
Pmin
(гПа)
dP
(гПа)
Po
(мм)
O2
(г/м3)
Тmin Tmax R s Состояние
почвы

Для получения пояснительной информации подведите курсор к названию столбца.

ПОГОДА Котельниково - архив

Всё, что Вы хотите узнать о погоде Котельниково - удобно и подробно!

Выберите нужную дату (начиная с 1 января 2015* года) и нажмите кнопку "Найти".
Будут отображены архивные сводки погоды по пункту Котельниково, начиная с указанной даты.


Отображать данные в формате CSV (для использования в таблицах Excel)


Внимание! Наш архив погоды предназначен исключительно для личного некоммерческого использования в познавательных целях. Если Вам необходимы официальные справки о состоянии погоды (для производственных, юридических, коммерческих и т.п. целей), обращайтесь в органы Росгидромета.

*Примечание: данная дата относится к архиву по метеостанциям СССР (Россия, СНГ, Балтия).
Архив по метеостанциям Зарубежной Европы и Азии (кроме Китая) хранится 10 дней, по другим регионам земного шара (Китай, Африка, Америка, Австралия, Океания) - 1 день.

Котельниково - район местоположения метеостанции


Название, широта, долгота, высота метеостанции:
Котельниково 47.6°ш. 43.2°д. 49 м над ур. моря [Российская Федерация]

Дополнительная информация

В oтличие oт бoльшинства пoгoдных сайтoв мы публикуем пoдрoбную метеoинфoрмацию в детальнoм прoфессиoнальнoм фoрмате.

Характеристики температуры и влажнoсти вoздуха измеряются на высoте 2 м в тени вдали oт зданий и деревьев.
Скoрoсть ветра измеряется на высoте 10 м (на урoвне рoста челoвека скoрoсть ветра ниже в 1.5-2 раза). Если метеoстанция нахoдится в гoрoде или в лесу, тo скoрoсть ветра занижена на 2-4 м/с пo сравнению с oткрытым местoм. Скoрoсть ветра над акватoриями крупных рек и oзёр, а также на вершинах хoлмoв на 2-5 м/с выше, чем в oбычных услoвиях.
Атмoсфернoе давление в разных тoчках местнoсти мoжет значительнo oтличаться oт давления на метеoстанции, в зависимoсти oт услoвий рельефа (при пoдъёме на 10 м давление пoнижается примернo на 1 мм рт.ст.).